IRIDIUM 61 [B]

Last updated on Thu Jun 20 2019 03:41:44 GMT+0000 (Coordinated Universal Time)

1 25263U 98018B 19170.48951708 -.00000055 00000-0 -24432-4 0 9995 2 25263 86.4230 12.8731 0002842 105.5061 254.6451 14.38598067112067
UTC large
Height (km)
Speed (km/s)
/
Latitude / Longitude
Inclination (degrees)
Orbital Period (minutes)
Azimuth
Elevation
Range (km)
Doppler Factor

Next 0 passes for location: London (51.5072 / 0.1276)

Sorry there are no passes over London.
IRIDIUM 61 [B]